Weather History for Kahului, HI

Change the Weather History Date:

Tuesday, November 29, 2011

  Actual Average Record
Temperature  
Mean Temperature 71 °F 75 °F  
Max Temperature 79 °F 83 °F 89 °F (1991)
Min Temperature 63 °F 67 °F 17 °F (2007)
Degree Days  
Heating Degree Days 0 0  
Month to date heating degree days 0 0  
Since 1 July heating degree days 0 0  
Cooling Degree Days 6 10  
Month to date cooling degree days 261 321  
Year to date cooling degree days 3631 3697  
Growing Degree Days 22 (Base 50)    
Moisture  
Dew Point 61 °F    
Average Humidity 69    
Maximum Humidity 79    
Minimum Humidity 58    
Precipitation  
Precipitation 0.00 in 0.10 in 2.17 in (1968)
Month to date precipitation 0.07 2.10  
Year to date precipitation 10.60 14.38  
Snow  
Snow 0.00 in - - ()
Month to date snowfall 0.0  
Since 1 July snowfall 0.0  
Since 1 September snowfall 0.0  
Snow Depth 0.00 in    
Sea Level Pressure  
Sea Level Pressure 29.97 in    
Wind  
Wind Speed 12 mph (NE)    
Max Wind Speed 23 mph    
Max Gust Speed 29 mph    
Visibility 10 miles    
Events Rain    
T = Trace of Precipitation, MM = Missing Value Source: NWS Daily Summary

Daily Weather History Graph

Daily Weather History Graph

Search for Another Location

Airport:

Trip Planner

Search our weather history database for the weather conditions in past years. The results will help you decide how hot, cold, wet, or windy it might be!

Date:

Astronomy

Nov. 29, 2011 Rise Set
Actual Time 6:44 AM HST 5:43 PM HST
Civil Twilight 6:20 AM HST 6:07 PM HST
Nautical Twilight 5:53 AM HST 6:34 PM HST
Astronomical Twilight 5:26 AM HST 7:01 PM HST
Moon 10:51 AM HST (11/29) 10:31 PM HST (11/29)
Length of Visible Light 11h 46m
Length of Day
10h 58m
Waxing Crescent, 26% of the Moon is Illuminated
Nov 29
Waxing Crescent
Dec 1
First Quarter
Dec 10
Full
Dec 17
Last Quarter
Dec 24
New

Hourly Weather History & Observations

Time (HST) Temp. Dew Point Humidity Pressure Visibility Wind Dir Wind Speed Gust Speed Precip Events Conditions
12:54 AM 70.0 °F 60.1 °F 71% 30.04 in 10.0 mi ENE 8.1 mph - N/A Rain Light Rain
1:54 AM 70.0 °F 59.0 °F 68% 30.02 in 10.0 mi ENE 15.0 mph - N/A   Clear
2:54 AM 70.0 °F 57.0 °F 63% 29.99 in 10.0 mi NE 9.2 mph - N/A   Clear
3:54 AM 69.1 °F 57.0 °F 65% 29.98 in 10.0 mi NE 5.8 mph - N/A   Clear
4:54 AM 69.1 °F 57.0 °F 65% 29.97 in 10.0 mi NE 5.8 mph - N/A   Clear
5:54 AM 69.1 °F 57.0 °F 65% 29.97 in 10.0 mi NNE 9.2 mph - N/A   Clear
6:54 AM 71.1 °F 57.9 °F 63% 29.99 in 10.0 mi NNE 16.1 mph 20.7 mph N/A   Clear
7:54 AM 72.0 °F 61.0 °F 68% 29.99 in 10.0 mi NE 15.0 mph - N/A   Partly Cloudy
8:54 AM 75.0 °F 61.0 °F 62% 30.00 in 10.0 mi NE 15.0 mph - N/A   Partly Cloudy
9:54 AM 73.9 °F 62.1 °F 66% 30.00 in 10.0 mi NE 20.7 mph - N/A   Partly Cloudy
10:54 AM 75.0 °F 63.0 °F 66% 29.99 in 10.0 mi NE 17.3 mph - N/A Rain Light Rain
11:54 AM 78.1 °F 62.1 °F 58% 29.97 in 10.0 mi NE 19.6 mph - N/A   Scattered Clouds
12:54 PM 79.0 °F 63.0 °F 58% 29.94 in 10.0 mi NNE 21.9 mph - N/A   Scattered Clouds
1:54 PM 77.0 °F 63.0 °F 62% 29.91 in 10.0 mi NE 17.3 mph - N/A   Scattered Clouds
2:54 PM 77.0 °F 64.0 °F 64% 29.91 in 10.0 mi NNE 19.6 mph - N/A   Scattered Clouds
3:54 PM 75.0 °F 64.0 °F 69% 29.91 in 10.0 mi NNE 12.7 mph - N/A   Scattered Clouds
4:54 PM 73.9 °F 64.9 °F 73% 29.91 in 10.0 mi NNE 12.7 mph - N/A   Scattered Clouds
5:54 PM 73.0 °F 64.0 °F 73% 29.93 in 10.0 mi NNE 11.5 mph - N/A   Scattered Clouds
6:54 PM 72.0 °F 64.0 °F 76% 29.94 in 10.0 mi NNE 13.8 mph - N/A   Clear
7:54 PM 71.1 °F 62.1 °F 73% 29.96 in 10.0 mi NE 4.6 mph - N/A   Clear
8:54 PM 69.1 °F 59.0 °F 70% 29.97 in 10.0 mi ENE 5.8 mph - N/A   Clear
9:54 PM 68.0 °F 59.0 °F 73% 29.98 in 10.0 mi NNE 11.5 mph - N/A   Clear
10:54 PM 64.9 °F 57.9 °F 78% 29.97 in 10.0 mi ESE 5.8 mph - N/A   Clear
11:54 PM 64.0 °F 57.9 °F 80% 29.96 in 10.0 mi SE 4.6 mph - N/A   Clear